{"data":{"norad_id":63930,"intl_designator":"2025-098E","name":"STARLINK-33980","alt_names":[],"object_type":"PAYLOAD","status":"ACTIVE","operator":null,"country":"US","launch_date":"2025-05-13","launch_site_code":"AFWTR","launch_vehicle":null,"mission":null,"orbit_class":"UNKNOWN","rcs_meters":null,"size_class":null,"mass_kg":null,"dimensions":null,"purposes":["comms"],"wikipedia_slug":null,"has_3d_model":false,"image_url":null,"decayed_at":null,"tle_current":{"epoch":"2026-09-20T01:36:59.524704Z","epoch_age_seconds":184507,"freshness":"STALE","line1":"1 63930U 25098E   26263.06735561  .00006326  00000+0  22460-3 0  9990","line2":"2 63930  70.0005 142.1674 0003231 271.2943  88.7862 15.29541078 75741","mean_motion":15.29541078,"eccentricity":0.0003231,"inclination_deg":70.0005,"raan_deg":142.1674,"arg_perigee_deg":271.2943,"mean_anomaly_deg":88.7862,"bstar":0.0002246,"rev_number":7574,"period_min":94.145886025037,"perigee_km":474.96824405007,"apogee_km":479.39815196202,"semimajor_km":6855.320198006,"source":"CELESTRAK","updated_at":"2026-09-21T09:00:35.149569Z"}}}